Location: Ballingbuur
(53.0000°N, 5.7667°E)
Time: 07:03:56
(UTC+00:00)

PSLV R/B - Pass Details

Date: 29 November 2020
Orbit: 503 x 578 km, 97.8° (Epoch: 23 January)

Event Time Altitude Azimuth Distance (km) Brightness Sun altitude
Rises 05:29:40 0° 15° (NNE) 2,730 7.4 -16.4°
Reaches altitude 10° 05:31:51 10° 18° (NNE) 1,818 6.5 -16.1°
Maximum altitude 05:35:46 72° 103° (ESE) 566 4.0 -15.5°
Drops below altitude 10° 05:39:33 10° 188° (S) 1,759 6.5 -15.0°
Sets 05:41:37 0° 191° (S) 2,631 7.4 -14.7°
